When you browse on this site, cookies collect data to enhance your experience and personalize the content and advertising you see.
Visit our Privacy Policy to learn more. By continuing to use the site, you agree to this use of cookies and data.
  • In Lithuania
  • List of Countries
  • For 7 days
  • Water Temperature
  • Weather Map
  • Weather Widgets
  • user-avatar
    Login

    Hourly Weather Klagenfurt

    Today, 15 October, Tuesday

    Time Temperature Precipitation Wind Pressure Humidity
    00:00 +10°C° 0 mm 1 mps 690 mmHg 94%
    01:00 +10°C° 0 mm 1 mps 690 mmHg 95%
    02:00 +10°C° 0 mm 1 mps 689 mmHg 96%
    03:00 +10°C° 0 mm 1 mps 689 mmHg 96%
    04:00 +10°C° 0 mm 1 mps 689 mmHg 96%
    05:00 +10°C° 0 mm 1 mps 689 mmHg 96%
    06:00 +11°C° 0 mm 1 mps 689 mmHg 96%
    07:00 +11°C° 0 mm 1 mps 689 mmHg 96%
    08:00 +12°C° 0 mm 1 mps 689 mmHg 91%
    09:00 +14°C° 0 mm 1 mps 689 mmHg 86%
    10:00 +15°C° 0 mm 2 mps 689 mmHg 81%
    11:00 +15°C° 0.1 mm 2 mps 688 mmHg 80%
    12:00 +16°C° 0.1 mm 2 mps 688 mmHg 78%
    13:00 +16°C° 0.1 mm 3 mps 688 mmHg 77%
    14:00 +16°C° 0.1 mm 2 mps 688 mmHg 80%
    15:00 +15°C° 0.1 mm 2 mps 687 mmHg 83%
    16:00 +15°C° 0.1 mm 2 mps 687 mmHg 87%
    17:00 +14°C° 0.1 mm 2 mps 687 mmHg 90%
    18:00 +13°C° 0.1 mm 2 mps 687 mmHg 93%
    19:00 +13°C° 0.1 mm 1 mps 687 mmHg 96%
    20:00 +13°C° 0.1 mm 1 mps 687 mmHg 96%
    21:00 +13°C° 0.1 mm 1 mps 687 mmHg 96%
    22:00 +13°C° 0.1 mm 1 mps 687 mmHg 96%
    23:00 +13°C° 0.5 mm 1 mps 687 mmHg 97%

    Tomorrow, 16 October, Wednesday

    Time Temperature Precipitation Wind Pressure Humidity
    00:00 +13°C° 0.5 mm 1 mps 687 mmHg 97%
    01:00 +13°C° 0.5 mm 1 mps 688 mmHg 97%
    02:00 +13°C° 0.4 mm 1 mps 688 mmHg 97%
    03:00 +13°C° 0.4 mm 1 mps 688 mmHg 98%
    04:00 +13°C° 0.4 mm 1 mps 688 mmHg 98%
    05:00 +13°C° 0.3 mm 1 mps 689 mmHg 98%
    06:00 +13°C° 0.3 mm 1 mps 689 mmHg 98%
    07:00 +12°C° 0.3 mm 0 mps 689 mmHg 98%
    08:00 +13°C° 0.1 mm 1 mps 690 mmHg 94%
    09:00 +14°C° 0.1 mm 1 mps 690 mmHg 90%
    10:00 +15°C° 0.1 mm 1 mps 691 mmHg 86%
    11:00 +16°C° 0.1 mm 1 mps 691 mmHg 81%
    12:00 +16°C° 0.1 mm 1 mps 691 mmHg 77%
    13:00 +18°C° 0.1 mm 1 mps 691 mmHg 72%
    14:00 +16°C° 0 mm 1 mps 691 mmHg 74%
    15:00 +16°C° 0 mm 1 mps 691 mmHg 76%
    16:00 +16°C° 0 mm 1 mps 690 mmHg 77%
    17:00 +14°C° 0 mm 1 mps 690 mmHg 83%
    18:00 +12°C° 0 mm 1 mps 690 mmHg 88%
    19:00 +10°C° 0 mm 1 mps 690 mmHg 93%
    20:00 +9°C° 0 mm 0 mps 690 mmHg 93%
    21:00 +8°C° 0 mm 0 mps 691 mmHg 94%
    22:00 +8°C° 0 mm 0 mps 691 mmHg 94%
    23:00 +8°C° 0 mm 0 mps 691 mmHg 94%

    Day after tomorrow, 17 October, Thursday

    Time Temperature Precipitation Wind Pressure Humidity
    00:00 +8°C° 0 mm 0 mps 691 mmHg 95%
    01:00 +8°C° 0 mm 0 mps 690 mmHg 95%
    02:00 +7°C° 0 mm 0 mps 690 mmHg 95%
    03:00 +7°C° 0 mm 0 mps 690 mmHg 95%
    04:00 +7°C° 0 mm 0 mps 690 mmHg 95%
    05:00 +7°C° 0 mm 0 mps 690 mmHg 95%
    06:00 +7°C° 0 mm 0 mps 690 mmHg 94%
    07:00 +7°C° 0 mm 0 mps 690 mmHg 94%
    08:00 +9°C° 0 mm 0 mps 691 mmHg 87%
    09:00 +11°C° 0 mm 0 mps 691 mmHg 80%
    10:00 +13°C° 0 mm 0 mps 691 mmHg 73%
    11:00 +14°C° 0 mm 0 mps 691 mmHg 70%
    12:00 +15°C° 0 mm 1 mps 691 mmHg 67%
    13:00 +16°C° 0 mm 1 mps 691 mmHg 64%
    14:00 +16°C° 0 mm 1 mps 691 mmHg 67%
    15:00 +15°C° 0 mm 1 mps 691 mmHg 70%
    16:00 +15°C° 0 mm 1 mps 691 mmHg 74%
    17:00 +13°C° 0 mm 1 mps 691 mmHg 80%
    18:00 +11°C° 0 mm 1 mps 691 mmHg 86%
    19:00 +10°C° 0 mm 1 mps 690 mmHg 92%
    20:00 +9°C° 0 mm 1 mps 691 mmHg 92%
    21:00 +9°C° 0 mm 1 mps 691 mmHg 92%
    22:00 +8°C° 0 mm 0 mps 691 mmHg 92%
    23:00 +8°C° 0 mm 0 mps 691 mmHg 92%

    18 October, Friday

    Time Temperature Precipitation Wind Pressure Humidity
    00:00 +7°C° 0 mm 0 mps 691 mmHg 92%
    01:00 +7°C° 0 mm 0 mps 691 mmHg 93%
    02:00 +7°C° 0 mm 0 mps 691 mmHg 93%
    03:00 +7°C° 0 mm 0 mps 691 mmHg 93%
    04:00 +7°C° 0 mm 0 mps 691 mmHg 93%
    05:00 +7°C° 0 mm 0 mps 690 mmHg 93%
    06:00 +7°C° 0 mm 0 mps 690 mmHg 92%
    07:00 +7°C° 0 mm 0 mps 690 mmHg 92%
    08:00 +9°C° 0 mm 0 mps 691 mmHg 85%
    09:00 +11°C° 0 mm 0 mps 691 mmHg 78%
    10:00 +13°C° 0 mm 0 mps 692 mmHg 71%
    11:00 +14°C° 0 mm 0 mps 691 mmHg 70%
    12:00 +15°C° 0 mm 1 mps 691 mmHg 68%
    13:00 +16°C° 0 mm 1 mps 691 mmHg 66%
    14:00 +15°C° 0 mm 1 mps 691 mmHg 70%
    15:00 +15°C° 0 mm 1 mps 691 mmHg 74%
    16:00 +14°C° 0 mm 1 mps 690 mmHg 78%
    17:00 +13°C° 0 mm 1 mps 690 mmHg 83%
    18:00 +12°C° 0 mm 1 mps 690 mmHg 88%
    19:00 +10°C° 0 mm 1 mps 690 mmHg 93%
    20:00 +10°C° 0 mm 1 mps 690 mmHg 93%
    21:00 +10°C° 0 mm 1 mps 690 mmHg 93%
    22:00 +10°C° 0 mm 1 mps 690 mmHg 93%
    23:00 +10°C° 0 mm 1 mps 690 mmHg 94%

    19 October, Saturday

    Time Temperature Precipitation Wind Pressure Humidity
    00:00 +9°C° 0 mm 1 mps 690 mmHg 95%
    01:00 +9°C° 0 mm 1 mps 690 mmHg 96%
    02:00 +9°C° 0 mm 1 mps 690 mmHg 96%
    03:00 +9°C° 0 mm 1 mps 690 mmHg 96%
    04:00 +9°C° 0 mm 1 mps 690 mmHg 96%
    05:00 +8°C° 0 mm 0 mps 690 mmHg 96%
    06:00 +8°C° 0 mm 0 mps 690 mmHg 95%
    07:00 +8°C° 0 mm 0 mps 690 mmHg 95%
    08:00 +10°C° 0 mm 0 mps 690 mmHg 89%
    09:00 +12°C° 0 mm 1 mps 690 mmHg 83%
    10:00 +14°C° 0 mm 1 mps 690 mmHg 77%
    11:00 +15°C° 0 mm 1 mps 690 mmHg 73%
    12:00 +16°C° 0 mm 1 mps 690 mmHg 70%
    13:00 +16°C° 0 mm 2 mps 690 mmHg 67%
    14:00 +16°C° 0 mm 2 mps 690 mmHg 70%
    15:00 +15°C° 0 mm 2 mps 689 mmHg 73%
    16:00 +15°C° 0 mm 2 mps 689 mmHg 76%
    17:00 +13°C° 0 mm 1 mps 689 mmHg 82%
    18:00 +12°C° 0 mm 1 mps 688 mmHg 88%
    19:00 +10°C° 0 mm 1 mps 688 mmHg 95%
    20:00 +10°C° 0 mm 1 mps 688 mmHg 95%
    21:00 +10°C° 0 mm 1 mps 688 mmHg 96%
    22:00 +9°C° 0 mm 1 mps 688 mmHg 96%
    23:00 +9°C° 0 mm 1 mps 688 mmHg 96%

    20 October, Sunday

    Time Temperature Precipitation Wind Pressure Humidity
    00:00 +9°C° 0 mm 1 mps 688 mmHg 96%
    01:00 +10°C° 0 mm 1 mps 687 mmHg 96%
    02:00 +10°C° 0.1 mm 1 mps 687 mmHg 97%
    03:00 +10°C° 0.1 mm 1 mps 687 mmHg 97%
    04:00 +10°C° 0.1 mm 1 mps 686 mmHg 97%
    05:00 +10°C° 0 mm 1 mps 686 mmHg 97%
    06:00 +10°C° 0 mm 1 mps 687 mmHg 97%
    07:00 +10°C° 0 mm 1 mps 687 mmHg 97%
    08:00 +10°C° 0.1 mm 2 mps 687 mmHg 92%
    09:00 +13°C° 0.1 mm 2 mps 687 mmHg 87%
    10:00 +14°C° 0.1 mm 2 mps 687 mmHg 82%
    11:00 +14°C° 0.1 mm 2 mps 687 mmHg 79%
    12:00 +14°C° 0.1 mm 3 mps 687 mmHg 75%
    13:00 +16°C° 0.1 mm 3 mps 688 mmHg 72%
    14:00 +15°C° 0.2 mm 2 mps 687 mmHg 76%
    15:00 +14°C° 0.2 mm 2 mps 687 mmHg 80%
    16:00 +13°C° 0.2 mm 2 mps 687 mmHg 85%
    17:00 +13°C° 0.1 mm 1 mps 687 mmHg 87%
    18:00 +12°C° 0.1 mm 1 mps 688 mmHg 90%
    19:00 +12°C° 0.1 mm 1 mps 688 mmHg 93%
    20:00 +12°C° 0.7 mm 1 mps 688 mmHg 94%
    21:00 +12°C° 0.7 mm 1 mps 688 mmHg 96%
    22:00 +12°C° 0.7 mm 1 mps 689 mmHg 97%
    23:00 +12°C° 0.6 mm 1 mps 689 mmHg 97%
    Show more